Regional Weather Roundup
Issued by NWS

Home | Current Version | Previous Version | Graphics & Text | Print | Product List | Glossary On
Versions: 1 2 3 4 5 6 7 8 9 10 11 12 13 14 15 16 17 18 19 20 21 22 23 24 25 26 27 28 29 30 31 32 33 34 35 36 37 38 39 40 41 42 43 44 45 46 47 48 49 50
000
ASUS43 KIND 282259
RWRIN

WEATHER ROUNDUP FOR INDIANA
NATIONAL WEATHER SERVICE INDIANAPOLIS IN
700 PM EDT SAT MAR 28 2015

NOTE: "FAIR" INDICATES FEW OR NO CLOUDS BELOW 12,000 FEET WITH NO
SIGNIFICANT WEATHER AND/OR OBSTRUCTIONS TO VISIBILITY.

* - STATION DOES NOT REPORT WEATHER SUCH AS PRECIPITATION OR FOG.

+ - STATION NOT QUALITY CONTROLLED BY THE NATIONAL WEATHER SERVICE.
    USE DATA WITH CAUTION...ESPECIALLY DEWPOINT AND RELATIVE
    HUMIDITY OBSERVATIONS.

INZ001>003-010>013-019-020-290000-
NORTHWEST INDIANA

CITY           SKY/WX    TMP DP  RH WIND       PRES   REMARKS
GARY /AIRPORT/ SUNNY     32   5  32 NE7       30.32F WCI  26

$$

LMZ046-743>745-290000-
SOUTHERN LAKE MICHIGAN

STATION/POSITION TIME  TEMP WIND        PRES
                       AIR  DIR/SP/G
                 (UTC) (F)  (DEG/KT/KT) (MB)
BURNS HARBOR     2200   27   30/  4/  7 1027.1F
MICHIGAN CITY    2200   28  340/  6/  6   N/A

$$

INZ004-005-014>016-021>024-290000-
NORTH CENTRAL INDIANA

CITY           SKY/WX    TMP DP  RH WIND       PRES   REMARKS
GOSHEN         SUNNY     35   8  32 SW7       30.28R WCI  29
SOUTH BEND     SUNNY     34  14  43 NW10      30.30R WCI  26
WARSAW +       SUNNY     34   9  35 N3        30.29R

$$

INZ006>009-017-018-025>027-290000-
NORTHEAST INDIANA

CITY           SKY/WX    TMP DP  RH WIND       PRES   REMARKS
ANGOLA *+      SUNNY     36   9  32 NW6       30.26R
AUBURN +       SUNNY     36   5  27 W3        30.28S
FORT WAYNE     SUNNY     36   9  32 NW7       30.29S

$$

INZ028-029-035-036-043>045-051>053-290000-
WEST CENTRAL INDIANA

CITY           SKY/WX    TMP DP  RH WIND       PRES   REMARKS
CRAWFORDSVL +  SUNNY     35   4  27 MISG      30.29R
GREENCASTLE +  SUNNY     36   9  32 CALM      30.29R
LAFAYETTE      SUNNY     37   6  27 CALM      30.30R
TERRE HAUTE    SUNNY     40   9  28 CALM      30.29S

$$

INZ030>032-037>040-046>048-054>057-064-065-290000-
CENTRAL INDIANA

CITY           SKY/WX    TMP DP  RH WIND       PRES   REMARKS
CP ATTERBURY + SUNNY     37  12  35 N5        30.30S
COLUMBUS       SUNNY     37   7  28 CALM      30.30R
FRANKFORT +    SUNNY     36  13  39 CALM      30.31R
GREENWOOD *+   SUNNY     37   5  25 CALM      30.29R
INDIANAPOLIS   SUNNY     38  10  31 NW5       30.27R
-EAGLE CREEK   SUNNY     37  13  37 W7        30.28R
KOKOMO *+        N/A     36  12  38 NW3       30.30R
MT COMFORT *+  SUNNY     36  -4  18 CALM      30.29S
SHELBYVILLE    SUNNY     38  12  34 NW5       30.29R

$$

INZ033-034-041-042-049-050-058-059-290000-
EAST CENTRAL INDIANA

CITY           SKY/WX    TMP DP  RH WIND       PRES   REMARKS
MUNCIE         SUNNY     34  12  40 CALM      30.29R

$$

INZ060-061-067>069-081>083-085>088-290000-
SOUTHWEST INDIANA

CITY           SKY/WX    TMP DP  RH WIND       PRES   REMARKS
EVANSVILLE     SUNNY     42  17  36 CALM      30.30S
HUNTINGBURG *+ SUNNY     41  16  36 NW3       30.30R

$$

INZ062-063-066-070>080-084-089>092-290000-
SOUTH CENTRAL AND SOUTHEAST INDIANA

CITY           SKY/WX    TMP DP  RH WIND       PRES   REMARKS
BLOOMINGTON    SUNNY     41  11  29 NW5       30.27R
SEYMOUR +      SUNNY     39  18  41 NE7       30.30R

$$




USA.gov is the U.S. government's official web portal to all federal, state and local government web resources and services.